Location: Julian California
(33.0790°N, 116.6010°W)
Time: 10:45:46
(UTC-07:00)

ERS-2 - Pass Details

Date: 14 June 2018
Orbit: 496 x 503 km, 98.5° (Epoch: 14 October)

Event Time Altitude Azimuth Distance (km) Brightness Sun altitude
Exits shadow 21:18:19 11° 187° (S) 1,617 4.4 -14.9°
Maximum altitude 21:21:36 44° 259° (W) 705 3.1 -15.4°
Drops below altitude 10° 21:25:08 10° 333° (NNW) 1,708 6.0 -15.9°
Sets 21:27:17 0° 340° (NNW) 2,595 6.9 -16.3°
